Regional Weather Roundup
Issued by NWS

Home | Current Version | Previous Version | Graphics & Text | Print | Product List | Glossary On
Versions: 1 2 3 4 5 6 7 8 9 10 11 12 13 14 15 16 17 18 19 20 21 22 23 24 25 26 27 28 29 30 31 32 33 34 35 36 37 38 39 40 41 42 43 44 45 46 47 48 49 50
000
ASUS43 KDMX 230501
RWRIA

WEATHER ROUNDUP FOR IOWA
NATIONAL WEATHER SERVICE DES MOINES IA
1100 PM CST THU FEB 22 2018

NOTE: "FAIR" INDICATES FEW OR NO CLOUDS BELOW 12,000 FEET WITH NO
SIGNIFICANT WEATHER AND/OR OBSTRUCTIONS TO VISIBILITY.

* - THESE STATIONS ARE NOT NWS STATIONS...THUS NOT UNDER NWS
QUALITY CONTROL.  THEY ALSO DO NOT REPORT WEATHER SUCH
AS PRECIPITATION OR FOG.

IAZ001>003-012>014-020>022-031>034-043>046-230600-
   NORTHWEST IOWA

CITY           SKY/WX    TMP DP  RH WIND       PRES   REMARKS
CARROLL *      LGT RAIN  32  32 100 S5        30.15F WCI  27
CHEROKEE *     LGT SNOW  28  28 100 CALM      30.15F
DENISON *      LGT SNOW  30  30 100 SW6       30.17S WCI  24
LE MARS *      CLOUDY    27  27 100 CALM      30.15F FOG
ORANGE CITY *  LGT SNOW  27  27 100 SW3       30.13F
SHELDON *      CLOUDY    27  27 100 S6        30.12F WCI  20
SIOUX CITY     LGT SNOW  26  26 100 SW3       30.16F FOG
SPENCER        LGT SNOW  29  27  92 SW3       30.14F FOG
STORM LAKE *   LGT SNOW  28  28 100 SW5       30.13F VSB 1   WCI  23
$$

IAZ055>058-069>071-079>083-090>094-230600-
   SOUTHWEST IOWA

CITY           SKY/WX    TMP DP  RH WIND       PRES   REMARKS
ATLANTIC *     CLOUDY    32  32 100 SW6       30.15F FOG     WCI  26
AUDUBON *      MIX PCPN  32  28  86 CALM      30.15F
CLARINDA *     LGT RAIN  32  32 100 CALM      30.19F
COUNCIL BLFS * LGT RAIN  30  30 100 W6        30.16F WCI  24
CRESTON *      LGT RAIN  32  32 100 SW9       30.18S WCI  24
HARLAN  *      FLURRIES  32  32 100 W6        30.18F WCI  26
LAMONI         MIX PCPN  32  31  96 W6        30.15F FOG     WCI  26
RED OAK *      LGT RAIN  32  32 100 SW3       30.17F
SHENANDOAH *   CLOUDY    32  32 100 CALM      30.18F FOG
$$

IAZ047>049-059>061-072>074-084-230600-
   CENTRAL IOWA

CITY           SKY/WX    TMP DP  RH WIND       PRES   REMARKS
AMES           LGT RAIN  33  31  92 SW6       30.17F FOG     WCI  28
ANKENY *       LGT RAIN  34  32  93 SW6       30.19R WCI  29
BOONE *        LGT RAIN  32  32 100 MISG      30.15F
CHARITON *     RAIN      32  32 100 SW5       30.15F WCI  27
DES MOINES     LGT RAIN  33  32  96 SW5       30.18S FOG     WCI  29
GRINNELL*      RAIN      34  33  97 SE15      30.13F VSB 1/4 WCI  24
KNOXVILLE *    LGT RAIN  34  34 100 SW7       30.16R VSB 1/2 WCI  28
MARSHALLTOWN   LGT RAIN  34  34 100 SE9       30.14F VSB 3/4 WCI  27
NEWTON *       LGT RAIN  34  34 100 S6        30.16R VSB 1/4 WCI  29
PELLA *        RAIN      34  34  99 S5        30.16F VSB 1/2 WCI  30
$$

IAZ004>006-015-016-023>025-035-036-230600-
   NORTH CENTRAL IOWA

CITY           SKY/WX    TMP DP  RH WIND       PRES   REMARKS
CLARION *      CLOUDY    32  32 100 SW9       30.16F FOG     WCI  24
ESTHERVILLE    LGT SNOW  29  28  96 S5        30.13F VSB 3/4 WCI  24
FORT DODGE *   MIX PCPN  32  31  96 SW7       30.16F FOG     WCI  26
MASON CITY     FRZ RAIN  32  32 100 S9        30.17R FOG     WCI  24
FOREST CITY *  MIX PCPN  32  32 100 S5        30.16F WCI  27
WEBSTER CITY * CLOUDY    32  32 100 SW6       30.14F FOG     WCI  26
IOWA FALLS *   MIX PCPN  33  33  97 S8        30.17R WCI  27
$$

IAZ007>011-017>019-026>030-037>042-050>054-066-230600-
   NORTHEAST IOWA

CITY           SKY/WX    TMP DP  RH WIND       PRES   REMARKS
CEDAR RAPIDS   FOG       35  35 100 SE14      30.16F VSB 3/4 WCI  26
CHARLES CITY * MIX PCPN  32  32 100 SE18G26   30.13F WCI  20
CLINTON *      CLOUDY    35  34  96 E15       30.22F FOG     WCI  25
DECORAH *      MIX PCPN  32  32 100 SE13G20   30.15F WCI  22
DUBUQUE        CLOUDY    32  30  92 E14       30.19F FOG     WCI  22
MONTICELLO *   CLOUDY    34  34 100 SE13G20   30.19F FOG     WCI  25
OELWEIN *      MIX PCPN  32  32 100 SE20      30.15F WCI  20
WATERLOO       MIX PCPN  33  33 100 SE16      30.15F FOG     WCI  23
$$

IAZ064-065-067-068-078-230600-
   EAST CENTRAL IOWA

CITY           SKY/WX    TMP DP  RH WIND       PRES   REMARKS
DAVENPORT      CLOUDY    37  34  89 E12       30.23F FOG     WCI  29
IOWA CITY      MIX PCPN  37  35  92 SE9       30.20F VSB 1   WCI  30
MT. PLEASANT * FOG       36  36 100 SE8       30.18F VSB 1   WCI  29
MUSCATINE *    CLOUDY    39  39 100 SE7       30.21F FOG     WCI  34
QUAD CITIES    CLOUDY    37  36  96 E9        30.21F FOG     WCI  30
$$

IAZ062-063-075>077-085>089-095>099-230600-
   SOUTHEAST IOWA

CITY           SKY/WX    TMP DP  RH WIND       PRES   REMARKS
BURLINGTON     FOG       38  38 100 E6        30.18F VSB 1/2 WCI  33
FAIRFIELD *    FOG       37  37 100 SE10      30.16F VSB 3/4 WCI  30
FORT MADISON * FOG       37  37 100 E6        30.18F VSB 1/4 WCI  33
KEOKUK *       FOG       37  37 100 E5        30.16F VSB<1/4 WCI  34
OSKALOOSA *    RAIN      34  34  99 SE12      30.15F VSB 1/4 WCI  25
OTTUMWA        LGT RAIN  36  36 100 SE9       30.14F VSB 3/4 WCI  29
WASHINGTON *   LGT RAIN  36  36 100 SE13      30.18F VSB<1/4 WCI  27
$$

ABBREVIATIONS USED IN REMARKS
   TC - TEMPERATURES IN CELSIUS
  WCI - WIND CHILL INDEX
   HX - HEAT INDEX
  VSB - VISIBILITY
$$





USA.gov is the U.S. government's official web portal to all federal, state and local government web resources and services.